[[{"header":{"parameterUnit":"m.s-1","parameterCategory":1,"la1":30.2991,"la2":30.254,"lo1":-89.0895,"lo2":-89.0444,"dy":0.0017,"dx":0.0017,"nx":28,"ny":28,"refTime":"2023-11-20T09:00:00:Z","depth":0,"parameterNumber":2,"parameterNumberName":"U-component_of_WINDS"},"data":[0,0,0,0,0,0,0,0,0,0,0,0,0,0,0,0,0,0,0,0,0,0,0,0,0,0,0,0,0,0,0,0,0,0,0,0,0,0,0,0,0,0,0,0,0,0,0,0,0,0,0,0,0,0,0,0,0,0,-1.0749,-1.075,0,-1.0848,-1.0849,-1.085,-1.0906,-1.0906,-1.0906,-1.0907,-1.1011,-1.1014,-1.1016,0,0,0,0,0,0,0,0,0,0,0,0,0,-1.0611,-1.0614,-1.0749,-1.075,-1.0752,-1.0848,-1.0849,-1.0851,-1.0906,-1.0906,-1.0907,-1.0907,-1.101,-1.1013,-1.1016,0,0,0,0,0,0,0,0,0,0,0,0,0,-1.0687,-1.0614,-1.0749,-1.0791,-1.0796,-1.0848,-1.0849,-1.0851,-1.0906,-1.0906,-1.0907,-1.0907,-1.1009,-1.1013,-1.1017,-1.1036,0,0,-1.1029,-1.103,0,0,0,0,0,0,0,0,-1.0683,-1.0692,-1.0783,-1.0788,-1.0793,-1.0865,-1.0839,-1.0913,-1.0906,-1.0864,-1.0907,-1.0907,-1.0962,-1.097,-1.0988,-1.1041,-1.1045,-1.1029,-1.1031,-1.1033,-1.1034,0,0,0,0,0,0,0,-1.0677,-1.0688,-1.0788,-1.0785,-1.0791,-1.0806,-1.0817,-1.0853,-1.0911,-1.0868,-1.0872,-1.0883,-1.0965,-1.0984,-1.0991,-1.1047,-1.1029,-1.1032,-1.1035,-1.1036,-1.1119,-1.1119,0,0,0,0,0,0,-1.0665,-1.0683,-1.0785,-1.0791,-1.0737,-1.0808,-1.082,-1.0842,-1.091,-1.0921,-1.0883,-1.0885,-1.0977,-1.0986,-1.0995,-1.1022,-1.1033,-1.1037,-1.1039,-1.112,-1.1119,-1.1119,0,0,0,0,0,0,-1.0662,-1.0673,-1.0781,-1.0738,-1.0753,-1.081,-1.0834,-1.0844,-1.0863,-1.0921,-1.0932,-1.0891,-1.0978,-1.0989,-1.1025,-1.1026,-1.1039,-1.1042,-1.112,-1.1119,-1.1119,-1.1075,0,0,0,0,0,0,-1.0658,-1.0672,-1.0679,-1.0738,-1.0755,-1.0808,-1.0834,-1.0845,-1.0869,-1.0873,-1.0933,-1.0943,-1.0979,-1.1019,-1.1029,-1.1032,-1.1045,-1.112,-1.112,-1.1119,-1.1076,-1.1073,-1.107,0,0,0,0,0,-1.0652,-1.0663,-1.0679,-1.0691,-1.0765,-1.0808,-1.0818,-1.0859,-1.0869,-1.0877,-1.0915,-1.0941,-1.1024,-1.1022,-1.1034,-1.1038,-1.112,-1.112,-1.1119,-1.1078,-1.1074,-1.107,0,0,0,0,0,0,-1.0604,-1.0672,-1.069,-1.072,-1.0758,-1.0818,-1.0829,-1.0854,-1.089,-1.0893,-1.0943,-1.0956,-1.0986,-1.1016,-1.1012,-1.106,-1.1075,-1.1077,-1.1039,-1.1036,-1.1033,-1.1025,-1.1048,0,0,0,0,0,-1.0597,-1.0625,-1.0683,-1.0704,-1.0722,-1.0772,-1.0793,-1.082,-1.0862,-1.0879,-1.0919,-1.0959,-1.0995,-1.1017,-1.1053,-1.1081,-1.1095,-1.1089,-1.1086,-1.1083,-1.1085,-1.1102,-1.11,-1.1118,-1.1118,-1.1118,0,0,-1.0582,-1.0623,-1.0638,-1.0695,-1.0728,-1.0757,-1.0785,-1.0815,-1.0837,-1.0884,-1.0919,-1.095,-1.0998,-1.103,-1.1046,-1.1056,-1.1083,-1.1083,-1.108,-1.1083,-1.1101,-1.1099,-1.1098,-1.1118,-1.1118,-1.1118,0,0,-1.0571,-1.0604,-1.0625,-1.0657,-1.0705,-1.0738,-1.0743,-1.0799,-1.0821,-1.0857,-1.0893,-1.092,-1.098,-1.1013,-1.1037,-1.1037,-1.1063,-1.1048,-1.1032,-1.1048,-1.1046,-1.1045,-1.1046,-1.1045,-1.1049,-1.1049,-1.1049,0,-1.0547,-1.0591,-1.0633,-1.066,-1.0685,-1.0727,-1.0749,-1.0778,-1.0836,-1.0852,-1.0862,-1.0937,-1.0973,-1.1013,-1.1012,-1.1031,-1.1039,-1.1041,-1.1043,-1.1042,-1.1042,-1.1043,-1.1043,-1.1047,-1.1047,-1.1047,-1.1047,0,-1.056,-1.059,-1.0601,-1.0654,-1.068,-1.0705,-1.0751,-1.0773,-1.0798,-1.083,-1.0867,-1.0911,-1.0956,-1.0968,-1.0994,-1.1011,-1.1016,-1.1033,-1.105,-1.1037,-1.1039,-1.104,-1.1043,-1.1044,-1.1045,-1.1045,0,0,-1.0521,-1.0596,-1.06,-1.0625,-1.0681,-1.0706,-1.0732,-1.0775,-1.0793,-1.0831,-1.0855,-1.0904,-1.0921,-1.0949,-1.0979,-1.0993,-1.099,-1.1009,-1.1011,-1.1004,-1.1012,-1.0999,-1.0998,-1.1007,-1.1007,-1.1007,-1.1008,0,-1.0518,-1.0566,-1.0604,-1.0639,-1.0668,-1.0708,-1.0731,-1.0768,-1.0799,-1.0829,-1.0864,-1.0897,-1.0916,-1.0933,-1.0949,-1.0987,-1.0992,-1.0987,-1.1031,-1.1032,-1.1017,-1.0999,-1.0985,-1.0984,-1.1009,-1.1009,-1.1009,0,-1.0521,-1.0556,-1.0593,-1.0646,-1.0659,-1.0679,-1.0722,-1.0749,-1.0793,-1.0814,-1.0844,-1.0875,-1.0906,-1.0919,-1.0963,-1.0958,-1.0978,-1.0999,-1.1,-1.1006,-1.102,-1.1005,-1.0985,-1.0984,-1.1011,-1.1011,-1.1011,0,-1.0489,-1.0546,-1.0575,-1.0595,-1.0658,-1.0671,-1.0698,-1.0741,-1.0764,-1.0802,-1.0818,-1.0858,-1.0881,-1.0912,-1.0953,-1.0959,-1.0993,-1.1009,-1.1012,-1.1011,-1.1018,-1.1017,-1.1,-1.103,-1.103,-1.103,-1.103,0,-1.0481,-1.0502,-1.0562,-1.058,-1.0605,-1.0649,-1.0673,-1.0703,-1.0742,-1.0767,-1.0804,-1.0828,-1.0881,-1.0911,-1.0943,-1.0974,-1.0984,-1.1003,-1.1011,-1.1,-1.0997,-1.1014,-1.1015,-1.103,-1.103,-1.103,-1.103,0,-1.045,-1.0491,-1.0525,-1.0581,-1.0595,-1.0611,-1.066,-1.0679,-1.0712,-1.0743,-1.0753,-1.0805,-1.0842,-1.0886,-1.0938,-1.096,-1.0988,-1.1001,-1.0973,-1.0978,-1.0978,-1.0977,-1.0972,-1.0974,-1.1001,-1.1001,-1.1001,0,-1.0443,-1.046,-1.0516,-1.0535,-1.0561,-1.0591,-1.0615,-1.0659,-1.0682,-1.0732,-1.0746,-1.0785,-1.0819,-1.0877,-1.092,-1.096,-1.0973,-1.0969,-1.098,-1.0967,-1.0974,-1.0972,-1.0974,-1.0966,-1.0965,-1.0965,-1.0965,0,-1.0425,-1.0444,-1.0476,-1.0515,-1.0541,-1.0574,-1.0609,-1.0623,-1.0674,-1.0698,-1.0736,-1.0762,-1.0814,-1.0853,-1.0898,-1.0927,-1.0955,-1.0961,-1.0963,-1.0952,-1.0935,-1.0944,-1.0965,-1.0961,-1.0961,-1.0961,-1.0962,-1.0962,-1.0406,-1.0423,-1.0465,-1.0499,-1.053,-1.0561,-1.0582,-1.0616,-1.0648,-1.0693,-1.0717,-1.0754,-1.0798,-1.0861,-1.0889,-1.0919,-1.0929,-1.0933,-1.0934,-1.0934,-1.093,-1.093,-1.0927,-1.0928,-1.0928,-1.0928,-1.0928,0,-1.0391,-1.042,-1.045,-1.0497,-1.0524,-1.0546,-1.0585,-1.0607,-1.0638,-1.0676,-1.0708,-1.0751,-1.0789,-1.0834,-1.0875,-1.0891,-1.0904,-1.09,-1.09,-1.0906,-1.092,-1.0913,-1.0889,-1.0889,-1.0889,-1.0889,-1.0889,-1.0889,-1.0386,-1.0415,-1.0439,-1.0484,-1.0513,-1.0549,-1.0569,-1.0599,-1.0629,-1.0675,-1.0706,-1.0735,-1.0776,-1.082,-1.0856,-1.0868,-1.0882,-1.0874,-1.089,-1.0902,-1.0905,-1.0908,-1.0902,-1.0876,-1.0876,-1.0874,-1.0874,-1.0874]},{"header":{"parameterUnit":"m.s-1","parameterCategory":1,"la1":30.2991,"la2":30.254,"lo1":-89.0895,"lo2":-89.0444,"dy":0.0017,"dx":0.0017,"nx":28,"ny":28,"refTime":"2023-11-20T09:00:00:Z","depth":0,"parameterNumber":3,"parameterNumberName":"V-component_of_WINDS"},"data":[0,0,0,0,0,0,0,0,0,0,0,0,0,0,0,0,0,0,0,0,0,0,0,0,0,0,0,0,0,0,0,0,0,0,0,0,0,0,0,0,0,0,0,0,0,0,0,0,0,0,0,0,0,0,0,0,0,0,6.2162,6.2164,0,6.2329,6.2331,6.2333,6.2372,6.2371,6.237,6.2369,6.2537,6.2542,6.2548,0,0,0,0,0,0,0,0,0,0,0,0,0,6.1872,6.1877,6.2162,6.2164,6.2166,6.2329,6.2331,6.2334,6.2372,6.2371,6.237,6.2368,6.2535,6.2542,6.2548,0,0,0,0,0,0,0,0,0,0,0,0,0,6.2015,6.1879,6.2161,6.2205,6.221,6.2329,6.2331,6.2334,6.2373,6.2371,6.2369,6.2368,6.2533,6.2541,6.2549,6.2635,0,0,6.2575,6.2578,0,0,0,0,0,0,0,0,6.2007,6.2025,6.2196,6.2202,6.2209,6.2328,6.2291,6.2435,6.2373,6.2311,6.2369,6.2367,6.2469,6.2482,6.2517,6.2643,6.265,6.2575,6.258,6.2584,6.2586,0,0,0,0,0,0,0,6.1997,6.2018,6.2228,6.2199,6.2206,6.2215,6.2234,6.2318,6.2397,6.2316,6.2319,6.2339,6.2472,6.2509,6.2521,6.2652,6.2575,6.2583,6.2588,6.2591,6.2858,6.286,0,0,0,0,0,0,6.198,6.201,6.2223,6.2233,6.2101,6.2222,6.2242,6.2291,6.2396,6.2411,6.234,6.234,6.2496,6.2512,6.2528,6.2636,6.2584,6.2592,6.2597,6.2856,6.2858,6.286,0,0,0,0,0,0,6.1973,6.1998,6.2216,6.2122,6.2151,6.2229,6.2283,6.2296,6.2333,6.2415,6.2429,6.2364,6.2495,6.2516,6.2608,6.2642,6.2596,6.2603,6.2853,6.2856,6.2859,6.2853,0,0,0,0,0,0,6.1965,6.1996,6.203,6.2123,6.2156,6.2295,6.2286,6.23,6.2348,6.2349,6.2441,6.2454,6.2495,6.2596,6.2617,6.2653,6.261,6.285,6.2854,6.2858,6.285,6.2855,6.286,0,0,0,0,0,6.1954,6.202,6.2031,6.2057,6.22,6.2297,6.2315,6.2362,6.235,6.2385,6.2437,6.2452,6.2635,6.2605,6.2629,6.2668,6.2848,6.2853,6.2858,6.2848,6.2854,6.286,0,0,0,0,0,0,6.1928,6.2033,6.2047,6.2145,6.2212,6.2303,6.2348,6.2367,6.2437,6.2436,6.2489,6.251,6.2599,6.2643,6.2607,6.2757,6.2741,6.2751,6.2726,6.2732,6.2737,6.2725,6.2616,0,0,0,0,0,6.1933,6.2004,6.2092,6.217,6.2203,6.227,6.2313,6.2344,6.2415,6.2443,6.2502,6.2569,6.2643,6.2689,6.2761,6.2856,6.2877,6.2895,6.2899,6.2903,6.2911,6.2966,6.2976,6.2876,6.2876,6.2876,0,0,6.1945,6.2012,6.2053,6.2166,6.2222,6.2293,6.2293,6.2368,6.2422,6.2454,6.2546,6.2591,6.267,6.2765,6.281,6.2804,6.2943,6.2909,6.2911,6.2918,6.2972,6.2981,6.299,6.2879,6.2878,6.2878,0,0,6.2005,6.2062,6.2134,6.219,6.2274,6.2318,6.2335,6.2424,6.2457,6.255,6.2576,6.2639,6.2763,6.2819,6.2864,6.2944,6.296,6.2966,6.2991,6.3044,6.3051,6.3059,6.3089,6.3099,6.2973,6.2973,6.2973,0,6.2009,6.212,6.2168,6.2244,6.2293,6.2326,6.2399,6.2451,6.2553,6.2586,6.2578,6.2736,6.2791,6.29,6.292,6.2954,6.2976,6.2956,6.3047,6.3054,6.3062,6.3092,6.3103,6.2974,6.2973,6.2973,6.2973,0,6.2122,6.2197,6.2245,6.2346,6.24,6.2474,6.2533,6.2582,6.2607,6.2652,6.2746,6.2814,6.29,6.2928,6.2952,6.3041,6.3035,6.3036,6.3022,6.3071,6.31,6.3111,6.2974,6.2974,6.2974,6.2974,0,0,6.217,6.2297,6.2314,6.2361,6.2456,6.2515,6.259,6.2676,6.2718,6.2787,6.2851,6.2956,6.2958,6.3008,6.3039,6.3086,6.3147,6.3082,6.3084,6.3093,6.325,6.3251,6.3263,6.3158,6.316,6.3162,6.3244,0,6.2243,6.238,6.2426,6.2539,6.2611,6.2643,6.2708,6.2773,6.2816,6.2882,6.2929,6.3004,6.3,6.3031,6.3078,6.313,6.318,6.3124,6.3219,6.3222,6.3201,6.3278,6.3278,6.3353,6.3256,6.3258,6.3259,0,6.2347,6.242,6.254,6.2628,6.266,6.2718,6.2801,6.2863,6.2938,6.2966,6.3022,6.305,6.3129,6.3109,6.3219,6.318,6.3221,6.3252,6.3256,6.3269,6.3245,6.3294,6.3378,6.3389,6.3277,6.3276,6.3274,0,6.2373,6.25,6.259,6.2628,6.2732,6.2773,6.2817,6.289,6.2939,6.3011,6.3043,6.3122,6.3166,6.3227,6.3275,6.3255,6.3381,6.3364,6.3408,6.3406,6.3434,6.3432,6.3528,6.3457,6.3457,6.3457,6.3456,0,6.2451,6.2524,6.2603,6.2658,6.2741,6.2793,6.2873,6.2919,6.2984,6.3048,6.3079,6.3139,6.3198,6.3265,6.3303,6.3389,6.3408,6.3433,6.3443,6.3432,6.3429,6.3461,6.3458,6.346,6.3459,6.3458,6.3458,0,6.2494,6.2551,6.265,6.2741,6.2765,6.2822,6.2899,6.2954,6.2998,6.3079,6.3101,6.3171,6.3251,6.3305,6.3407,6.3433,6.3527,6.3535,6.3503,6.3508,6.3549,6.3545,6.367,6.369,6.3604,6.3604,6.3605,0,6.2542,6.2599,6.2696,6.2742,6.2788,6.2861,6.2911,6.2964,6.3015,6.3104,6.3148,6.3231,6.3301,6.3428,6.3487,6.3566,6.3576,6.3615,6.3588,6.3576,6.3579,6.3576,6.3583,6.3619,6.362,6.3621,6.3621,0,6.262,6.2645,6.2718,6.28,6.286,6.2927,6.2994,6.3029,6.3093,6.3149,6.3233,6.3286,6.3392,6.3474,6.3559,6.3604,6.3624,6.3628,6.3643,6.3634,6.3614,6.3627,6.3517,6.3626,6.3625,6.3625,6.3625,6.3625,6.2669,6.2722,6.2799,6.2879,6.2935,6.2997,6.3053,6.3105,6.3176,6.3267,6.3293,6.338,6.3453,6.3569,6.3616,6.3684,6.3681,6.3701,6.3707,6.3712,6.3713,6.3601,6.3699,6.3699,6.3699,6.3699,6.3699,0,6.2751,6.2802,6.2875,6.2968,6.3031,6.3044,6.3119,6.3171,6.3248,6.3315,6.3383,6.3479,6.3559,6.3624,6.3707,6.3749,6.3761,6.377,6.3768,6.3779,6.3711,6.3691,6.3759,6.3759,6.3759,6.3759,6.3759,6.3759,6.2801,6.2892,6.2926,6.3045,6.3095,6.3183,6.3225,6.3282,6.3336,6.3443,6.351,6.3552,6.3619,6.3706,6.378,6.3797,6.3827,6.3835,6.3854,6.379,6.3783,6.3777,6.3759,6.384,6.384,6.3916,6.3917,6.3918]}]]